Regional Weather Roundup
Issued by NWS Kansas City/Pleasant Hill, MO

Home | Current Version | Previous Version | Graphics & Text | Print | Product List | Glossary Off
Versions: 1 2 3 4 5 6 7 8 9 10 11 12 13 14 15 16 17 18 19 20 21 22 23 24 25 26 27 28 29 30 31 32 33 34 35 36 37 38 39 40 41 42 43 44 45 46 47 48 49 50

000
ASUS43 KEAX 231210
RWREAX

WEATHER ROUNDUP FOR EASTERN KANSAS AND NORTHWEST MISSOURI
NATIONAL WEATHER SERVICE KANSAS CITY/PLEASANT HILL MO
600 AM CST FRI FEB 23 2018

KSZ040-057-103>105-MOZ028-029-037-043-231300-
...KANSAS CITY METROPOLITAN AREA...

CITY           SKY/WX    TMP DP  RH WIND       PRES   REMARKS
K.C. INTL      CLOUDY    32  31  96 NW6       30.22R FOG     WCI  26
6HR MIN TEMP:  32; 6HR MAX TEMP:  33; 6HR PCP: TRACE;

K.C. DOWNTOWN  CLOUDY    35  31  85 W5        30.23R WCI  31
6HR MIN TEMP:  34; 6HR MAX TEMP:  35;

LEES SUMMIT    CLOUDY    33  33 100 W3        30.23R
6HR MIN TEMP:  33; 6HR MAX TEMP:  34;

OLATHE - IXD   CLOUDY    32  32 100 W6        30.23R WCI  26
6HR MIN TEMP:  32; 6HR MAX TEMP:  33;

OLATHE - OJC   CLOUDY    32  32 100 W7        30.22R WCI  26
6HR MIN TEMP:  32; 6HR MAX TEMP:  32;

LAWRENCE       CLOUDY    33  32  96 W6        30.23S WCI  28

$$

MOZ001>008-011>017-020>025-030>033-038>040-044>046-053-054-231300-
...NORTHERN AND CENTRAL MISSOURI...

CITY           SKY/WX    TMP DP  RH WIND       PRES   REMARKS
ST. JOSEPH     CLOUDY    33  32  96 NW6       30.23R WCI  28
6HR MIN TEMP:  32; 6HR MAX TEMP:  33;

MOSBY          CLOUDY    34  32  93 NW7       30.23R WCI  28
WARRENSBURG    CLOUDY    34  34 100 W6        30.25R WCI  29
WHITEMAN AFB   CLOUDY    36  34  93 W7        30.19R FOG     WCI  30
6HR MIN TEMP:  36; 6HR MAX TEMP:  38; 6HR PCP: TRACE;

CLINTON        CLOUDY    36  36 100 W7        30.25R WCI  30
SEDALIA        CLOUDY    38  37  97 W7        30.24R WCI  33
6HR MIN TEMP:  38; 6HR MAX TEMP:  41; 6HR PCP:  0.01;

WARSAW         NOT AVBL
CHILLICOTHE      N/A     34  31  88 NW8       30.22R WCI  27
6HR MIN TEMP:  33; 6HR MAX TEMP:  34; 6HR PCP:  0.01;

KIRKSVILLE     CLOUDY    34  34 100 W9G20     30.18R WCI  27
6HR MIN TEMP:  34; 6HR MAX TEMP:  35; 6HR PCP:  0.02;


$$

MOZ041-047>049-056>058-063>065-088>090-097-231300-
...EASTERN AND SOUTHERN MISSOURI...

CITY           SKY/WX    TMP DP  RH WIND       PRES   REMARKS
ST. LOUIS INTL CLOUDY    46  45  96 W10       30.20R
6HR MIN TEMP:  45; 6HR MAX TEMP:  46; 6HR PCP:  0.02;

SPIRIT OF STL  CLOUDY    46  45  96 W7        30.21R
COLUMBIA       CLOUDY    39  50 100 W10       30.22R WCI  32
JEFFERSON CITY CLOUDY    42  39  89 W9        30.24R
ROLLA          CLOUDY    43  43 100 W8        30.22R
OSAGE BEACH    CLOUDY    41  39  93 W8        30.25R FOG
SPRINGFIELD    CLOUDY    41  40  96 W6        30.23R
BRANSON        FOG       41  41 100 CALM      30.26R VSB 3/4
JOPLIN         CLOUDY    37  37 100 CALM      30.26R FOG
WEST PLAINS    CLOUDY    44  43  96 NW6       30.24R

$$

IAZ060-094-KSZ022-034>040-054-083-096-NEZ052-066-093-231300-
...KANSAS...SOUTHEAST NEBRASKA AND IOWA...

CITY           SKY/WX    TMP DP  RH WIND       PRES   REMARKS
TOPEKA         CLOUDY    33  33 100 W6        30.24R WCI  28
6HR MIN TEMP:  33; 6HR MAX TEMP:  33;

MANHATTAN      CLOUDY    32  26  78 NW6       30.24R WCI  26
EMPORIA        CLOUDY    32  30  92 NW3       30.22R
CHANUTE        CLOUDY    35  34  96 CALM      30.25R
WICHITA        CLOUDY    33  32  96 N8        30.20S WCI  26
OMAHA          PTCLDY    25  22  88 W12       30.21R WCI  14
LINCOLN        CLOUDY    23  20  88 W3        30.23R
FALLS CITY     CLOUDY    29  26  89 W7        30.22R WCI  22
LAMONI         CLOUDY    32  29  88 W10       30.19R WCI  24
DES MOINES     CLOUDY    33  28  81 W12       30.17R WCI  24

$$




USA.gov is the U.S. government's official web portal to all federal, state and local government web resources and services.